TimePST,TemperatureF,Dew PointF,Humidity,Sea Level PressureIn,VisibilityMPH,Wind Direction,Wind SpeedMPH,Gust SpeedMPH,PrecipitationIn,Events,Conditions,WindDirDegrees,DateUTC
12:30 AM,44.6,39.2,81,29.87,10.0,SSW,13.8,-,0.00,,Mostly Cloudy,200,2012-12-05 08:30:00
12:41 AM,44.6,37.4,76,29.87,10.0,South,15.0,21.9,0.00,,Mostly Cloudy,190,2012-12-05 08:41:00
12:53 AM,44.1,37.9,79,29.91,10.0,SSW,16.1,23.0,0.00,,Scattered Clouds,200,2012-12-05 08:53:00
1:53 AM,45.0,37.0,74,29.96,10.0,SSW,15.0,24.2,N/A,,Mostly Cloudy,200,2012-12-05 09:53:00
2:53 AM,44.1,35.1,71,30.00,10.0,SSW,16.1,25.3,N/A,,Scattered Clouds,210,2012-12-05 10:53:00
3:53 AM,43.0,36.0,76,30.05,10.0,SSW,15.0,-,N/A,,Mostly Cloudy,200,2012-12-05 11:53:00
4:53 AM,42.1,36.0,79,30.07,10.0,SSW,13.8,-,0.00,,Overcast,210,2012-12-05 12:53:00
6:53 AM,41.0,36.0,82,30.12,10.0,SSW,10.4,-,N/A,,Mostly Cloudy,200,2012-12-05 14:53:00
7:53 AM,41.0,36.0,82,30.14,10.0,South,12.7,-,N/A,,Mostly Cloudy,190,2012-12-05 15:53:00
8:53 AM,42.1,35.1,76,30.17,10.0,South,12.7,-,N/A,,Scattered Clouds,170,2012-12-05 16:53:00
9:53 AM,44.1,36.0,73,30.19,10.0,South,12.7,-,N/A,,Scattered Clouds,180,2012-12-05 17:53:00
10:53 AM,45.0,37.0,74,30.22,10.0,SSW,16.1,-,N/A,,Scattered Clouds,200,2012-12-05 18:53:00
11:53 AM,46.0,37.0,71,30.21,10.0,SSW,12.7,-,N/A,,Mostly Cloudy,200,2012-12-05 19:53:00
12:53 PM,46.9,36.0,66,30.21,10.0,SW,11.5,-,N/A,,Mostly Cloudy,220,2012-12-05 20:53:00
1:53 PM,46.9,37.0,68,30.20,10.0,South,8.1,-,N/A,,Mostly Cloudy,180,2012-12-05 21:53:00
2:53 PM,46.9,36.0,66,30.20,10.0,SSW,9.2,-,N/A,,Mostly Cloudy,210,2012-12-05 22:53:00
3:53 PM,46.0,37.0,71,30.22,10.0,SSW,8.1,-,0.01,,Mostly Cloudy,200,2012-12-05 23:53:00
4:27 PM,42.8,37.4,81,30.20,6.0,SW,8.1,-,0.04,Rain,Light Rain,220,2012-12-06 00:27:00
4:29 PM,42.8,37.4,81,30.20,7.0,WSW,8.1,-,0.05,Rain,Light Rain,240,2012-12-06 00:29:00
4:53 PM,43.0,37.9,82,30.22,10.0,South,9.2,-,0.05,,Overcast,190,2012-12-06 00:53:00
5:53 PM,42.1,37.0,82,30.22,10.0,South,10.4,-,N/A,,Overcast,170,2012-12-06 01:53:00
6:53 PM,43.0,36.0,76,30.22,10.0,South,8.1,-,N/A,,Overcast,170,2012-12-06 02:53:00
7:53 PM,44.1,36.0,73,30.23,10.0,SSW,5.8,-,0.00,Rain,Light Rain,210,2012-12-06 03:53:00
8:53 PM,43.0,36.0,76,30.22,10.0,South,10.4,-,0.00,,Overcast,170,2012-12-06 04:53:00
9:53 PM,43.0,36.0,76,30.22,10.0,SSW,8.1,-,N/A,,Overcast,200,2012-12-06 05:53:00
10:53 PM,44.1,36.0,73,30.21,10.0,South,8.1,-,N/A,,Overcast,190,2012-12-06 06:53:00
11:19 PM,44.6,37.4,76,30.19,10.0,SSW,9.2,-,0.00,Rain,Light Rain,210,2012-12-06 07:19:00
11:53 PM,43.0,37.0,80,30.21,10.0,SSW,5.8,-,0.00,,Overcast,210,2012-12-06 07:53:00